[[{"header":{"parameterUnit":"m.s-1","parameterCategory":1,"la1":30.2991,"la2":30.254,"lo1":-89.0895,"lo2":-89.0444,"dy":0.0017,"dx":0.0017,"nx":28,"ny":28,"refTime":"2025-08-30T21:00:00:Z","depth":0,"parameterNumber":2,"parameterNumberName":"U-component_of_WINDS"},"data":[0,0,0,0,0,0,0,0,0,0,0,0,0,0,0,0,0,0,0,0,0,0,0,0,0,0,0,0,0,0,0,0,0,0,0,0,0,0,0,0,0,0,0,0,0,0,0,0,0,0,0,0,0,0,0,0,0,0,-0.7162,-0.7162,0,-0.7108,-0.7107,-0.7107,-0.7072,-0.7071,-0.7071,-0.7071,-0.7012,-0.7011,-0.7009,0,0,0,0,0,0,0,0,0,0,0,0,0,-0.7234,-0.7233,-0.7163,-0.7162,-0.7161,-0.7108,-0.7107,-0.7106,-0.7072,-0.7071,-0.7071,-0.7071,-0.7012,-0.7011,-0.7009,0,0,0,0,0,0,0,0,0,0,0,0,0,-0.7193,-0.7232,-0.7163,-0.7137,-0.7135,-0.7108,-0.7107,-0.7106,-0.7072,-0.7071,-0.7071,-0.7071,-0.7013,-0.7011,-0.7009,-0.7002,0,0,-0.7002,-0.7002,0,0,0,0,0,0,0,0,-0.7196,-0.7191,-0.7142,-0.7139,-0.7136,-0.7096,-0.7111,-0.7071,-0.7072,-0.7095,-0.7071,-0.7071,-0.704,-0.7036,-0.7026,-0.6999,-0.6997,-0.7002,-0.7001,-0.7,-0.7,0,0,0,0,0,0,0,-0.7199,-0.7193,-0.7141,-0.7141,-0.7138,-0.7128,-0.7122,-0.7103,-0.707,-0.7093,-0.7091,-0.7085,-0.7038,-0.7028,-0.7024,-0.6996,-0.7002,-0.7,-0.6999,-0.6998,-0.696,-0.6961,0,0,0,0,0,0,-0.7206,-0.7196,-0.7142,-0.7139,-0.7166,-0.7127,-0.712,-0.7109,-0.707,-0.7064,-0.7085,-0.7084,-0.7032,-0.7027,-0.7022,-0.7011,-0.7,-0.6998,-0.6997,-0.696,-0.696,-0.6961,0,0,0,0,0,0,-0.7207,-0.7201,-0.7145,-0.7167,-0.7159,-0.7126,-0.7114,-0.7108,-0.7098,-0.7064,-0.7058,-0.7081,-0.7031,-0.7025,-0.7007,-0.7009,-0.6997,-0.6995,-0.696,-0.696,-0.6961,-0.699,0,0,0,0,0,0,-0.721,-0.7202,-0.72,-0.7167,-0.7158,-0.7132,-0.7114,-0.7107,-0.7095,-0.7092,-0.7058,-0.7052,-0.7031,-0.7011,-0.7005,-0.7006,-0.6994,-0.696,-0.696,-0.6961,-0.6989,-0.6992,-0.6994,0,0,0,0,0,-0.7212,-0.721,-0.72,-0.7194,-0.7154,-0.7132,-0.7127,-0.7103,-0.7095,-0.7092,-0.707,-0.7053,-0.701,-0.7009,-0.7003,-0.7003,-0.6959,-0.696,-0.696,-0.6988,-0.6991,-0.6994,0,0,0,0,0,0,-0.7243,-0.7205,-0.7194,-0.7181,-0.716,-0.7126,-0.7122,-0.7107,-0.7087,-0.7085,-0.7055,-0.7047,-0.7033,-0.7016,-0.7016,-0.6994,-0.6983,-0.6982,-0.7006,-0.7008,-0.7011,-0.7015,-0.6992,0,0,0,0,0,-0.7248,-0.7234,-0.7202,-0.7193,-0.7183,-0.7155,-0.7144,-0.7127,-0.7104,-0.7095,-0.7072,-0.7049,-0.703,-0.7018,-0.6999,-0.6987,-0.6978,-0.6983,-0.6986,-0.6988,-0.6987,-0.6979,-0.6981,-0.6963,-0.6963,-0.6963,0,0,-0.7259,-0.7236,-0.7229,-0.7199,-0.7181,-0.7166,-0.7147,-0.7133,-0.7121,-0.7092,-0.7075,-0.7057,-0.703,-0.7015,-0.7007,-0.7,-0.6991,-0.6989,-0.6991,-0.6989,-0.698,-0.6982,-0.6983,-0.6963,-0.6963,-0.6963,0,0,-0.727,-0.7252,-0.7243,-0.7226,-0.72,-0.7181,-0.7179,-0.7147,-0.7135,-0.7117,-0.7095,-0.708,-0.7048,-0.703,-0.7016,-0.7022,-0.7005,-0.7016,-0.7029,-0.7021,-0.7022,-0.7024,-0.7025,-0.7026,-0.7016,-0.7016,-0.7016,0,-0.7286,-0.7265,-0.724,-0.7227,-0.7214,-0.7189,-0.7179,-0.7163,-0.7131,-0.7122,-0.7116,-0.7075,-0.7055,-0.7035,-0.7037,-0.7027,-0.7023,-0.702,-0.7024,-0.7025,-0.7026,-0.7027,-0.7028,-0.7017,-0.7017,-0.7017,-0.7017,0,-0.7286,-0.7271,-0.7267,-0.7238,-0.7225,-0.7213,-0.7186,-0.7175,-0.716,-0.7141,-0.7123,-0.7098,-0.7073,-0.7068,-0.7052,-0.7045,-0.7042,-0.703,-0.7018,-0.703,-0.703,-0.7031,-0.702,-0.7019,-0.7019,-0.7018,0,0,-0.7315,-0.7273,-0.7272,-0.7259,-0.7228,-0.7216,-0.7203,-0.718,-0.7171,-0.715,-0.7138,-0.7112,-0.7101,-0.7086,-0.7067,-0.7061,-0.7067,-0.705,-0.7049,-0.7053,-0.7058,-0.7067,-0.7068,-0.7056,-0.7056,-0.7056,-0.706,0,-0.7322,-0.7299,-0.7277,-0.7261,-0.7247,-0.7223,-0.7211,-0.7191,-0.7173,-0.7158,-0.7137,-0.712,-0.7107,-0.7097,-0.709,-0.7068,-0.7067,-0.7067,-0.7043,-0.7043,-0.7051,-0.7068,-0.7077,-0.7082,-0.706,-0.706,-0.706,0,-0.7327,-0.7308,-0.7292,-0.7263,-0.7256,-0.7246,-0.7224,-0.7209,-0.7185,-0.7173,-0.7156,-0.7137,-0.7122,-0.7112,-0.7089,-0.709,-0.7079,-0.7066,-0.7066,-0.7062,-0.7052,-0.7064,-0.7083,-0.7084,-0.706,-0.706,-0.706,0,-0.735,-0.732,-0.7307,-0.7296,-0.7262,-0.7256,-0.7241,-0.7216,-0.7204,-0.7184,-0.7175,-0.7153,-0.7141,-0.7123,-0.7099,-0.7094,-0.7079,-0.7067,-0.7067,-0.7068,-0.7065,-0.7065,-0.7082,-0.7058,-0.7058,-0.7058,-0.7058,0,-0.736,-0.7351,-0.7317,-0.7308,-0.7297,-0.7271,-0.726,-0.7243,-0.7222,-0.7209,-0.7186,-0.7174,-0.7143,-0.7127,-0.7107,-0.7091,-0.7086,-0.7075,-0.707,-0.7077,-0.7078,-0.7069,-0.7068,-0.7058,-0.7058,-0.7058,-0.7058,0,-0.7383,-0.736,-0.7344,-0.7313,-0.7305,-0.7298,-0.7271,-0.7261,-0.7243,-0.7227,-0.7221,-0.7191,-0.7171,-0.7145,-0.7117,-0.7104,-0.709,-0.7082,-0.7099,-0.7096,-0.7097,-0.7098,-0.7108,-0.7108,-0.7086,-0.7086,-0.7086,0,-0.7391,-0.7384,-0.7352,-0.7343,-0.7329,-0.7314,-0.7301,-0.7275,-0.7263,-0.7235,-0.7229,-0.7208,-0.7189,-0.7158,-0.7133,-0.7111,-0.7102,-0.7108,-0.7099,-0.7106,-0.7102,-0.7103,-0.7102,-0.711,-0.711,-0.711,-0.7111,0,-0.7407,-0.7397,-0.738,-0.736,-0.7346,-0.7329,-0.731,-0.7303,-0.7273,-0.726,-0.724,-0.7226,-0.7198,-0.7176,-0.7151,-0.7135,-0.7117,-0.7114,-0.7113,-0.712,-0.7129,-0.7124,-0.7104,-0.7114,-0.7113,-0.7113,-0.7113,-0.7113,-0.7423,-0.7415,-0.7392,-0.7375,-0.7358,-0.7342,-0.7331,-0.7312,-0.7295,-0.7271,-0.7256,-0.7237,-0.7212,-0.7177,-0.7161,-0.7144,-0.7138,-0.7136,-0.7136,-0.7136,-0.7138,-0.7133,-0.714,-0.714,-0.7139,-0.7139,-0.7139,0,-0.7438,-0.7422,-0.7407,-0.7382,-0.7368,-0.7354,-0.7333,-0.7322,-0.7306,-0.7285,-0.7267,-0.7244,-0.7224,-0.7197,-0.7175,-0.7166,-0.7158,-0.7161,-0.7161,-0.7158,-0.7145,-0.7148,-0.7169,-0.7169,-0.7169,-0.7168,-0.7168,-0.7168,-0.7444,-0.7431,-0.7417,-0.7395,-0.7379,-0.736,-0.7349,-0.7333,-0.7317,-0.7292,-0.7276,-0.7259,-0.7236,-0.7211,-0.7191,-0.7184,-0.7176,-0.7182,-0.7172,-0.7161,-0.7159,-0.7156,-0.7159,-0.7181,-0.7181,-0.7186,-0.7186,-0.7186]},{"header":{"parameterUnit":"m.s-1","parameterCategory":1,"la1":30.2991,"la2":30.254,"lo1":-89.0895,"lo2":-89.0444,"dy":0.0017,"dx":0.0017,"nx":28,"ny":28,"refTime":"2025-08-30T21:00:00:Z","depth":0,"parameterNumber":3,"parameterNumberName":"V-component_of_WINDS"},"data":[0,0,0,0,0,0,0,0,0,0,0,0,0,0,0,0,0,0,0,0,0,0,0,0,0,0,0,0,0,0,0,0,0,0,0,0,0,0,0,0,0,0,0,0,0,0,0,0,0,0,0,0,0,0,0,0,0,0,-2.6239,-2.624,0,-2.628,-2.628,-2.628,-2.627,-2.627,-2.6269,-2.6268,-2.6306,-2.6308,-2.6309,0,0,0,0,0,0,0,0,0,0,0,0,0,-2.6152,-2.6153,-2.6239,-2.624,-2.624,-2.6279,-2.628,-2.6281,-2.627,-2.627,-2.6269,-2.6268,-2.6305,-2.6307,-2.6309,0,0,0,0,0,0,0,0,0,0,0,0,0,-2.619,-2.6154,-2.6239,-2.624,-2.6241,-2.6279,-2.628,-2.6281,-2.6271,-2.627,-2.6268,-2.6267,-2.6305,-2.6307,-2.631,-2.6349,0,0,-2.6318,-2.6319,0,0,0,0,0,0,0,0,-2.6188,-2.6194,-2.624,-2.624,-2.6241,-2.6269,-2.6263,-2.6303,-2.6271,-2.6259,-2.6268,-2.6267,-2.6294,-2.6298,-2.6308,-2.6351,-2.6352,-2.6318,-2.632,-2.6321,-2.6321,0,0,0,0,0,0,0,-2.6186,-2.6192,-2.6255,-2.624,-2.6241,-2.6238,-2.6242,-2.6271,-2.6283,-2.626,-2.626,-2.6265,-2.6294,-2.6305,-2.6308,-2.6353,-2.6318,-2.632,-2.6322,-2.6323,-2.6431,-2.6432,0,0,0,0,0,0,-2.6183,-2.619,-2.6254,-2.6256,-2.6211,-2.624,-2.6245,-2.6261,-2.6282,-2.6285,-2.6266,-2.6264,-2.6301,-2.6305,-2.631,-2.6358,-2.6321,-2.6323,-2.6325,-2.643,-2.6431,-2.6433,0,0,0,0,0,0,-2.6181,-2.6189,-2.6252,-2.6223,-2.6231,-2.6243,-2.6261,-2.6262,-2.6273,-2.6287,-2.6288,-2.6275,-2.6301,-2.6306,-2.634,-2.6359,-2.6324,-2.6327,-2.6428,-2.643,-2.6432,-2.6454,0,0,0,0,0,0,-2.6178,-2.6188,-2.6204,-2.6223,-2.6232,-2.6282,-2.6262,-2.6264,-2.6278,-2.6276,-2.6295,-2.6297,-2.63,-2.6336,-2.6342,-2.6362,-2.6329,-2.6427,-2.6429,-2.6431,-2.6452,-2.6456,-2.6461,0,0,0,0,0,-2.6175,-2.6207,-2.6204,-2.6212,-2.6252,-2.6284,-2.6289,-2.6292,-2.628,-2.6295,-2.6304,-2.6297,-2.6356,-2.6339,-2.6347,-2.6367,-2.6425,-2.6428,-2.6431,-2.6449,-2.6455,-2.646,0,0,0,0,0,0,-2.6188,-2.621,-2.6207,-2.6246,-2.6263,-2.6282,-2.6301,-2.6298,-2.6318,-2.6315,-2.6318,-2.6322,-2.6357,-2.6365,-2.6347,-2.6407,-2.6389,-2.6393,-2.64,-2.6406,-2.641,-2.6408,-2.6331,0,0,0,0,0,-2.6196,-2.622,-2.6237,-2.627,-2.6279,-2.6289,-2.6303,-2.6304,-2.6321,-2.6328,-2.6339,-2.6355,-2.6378,-2.6392,-2.6413,-2.6453,-2.6457,-2.647,-2.6475,-2.6478,-2.6482,-2.6504,-2.6511,-2.6443,-2.6443,-2.6442,0,0,-2.6211,-2.6226,-2.6241,-2.6273,-2.6287,-2.6312,-2.6295,-2.6322,-2.634,-2.6332,-2.6365,-2.6373,-2.6391,-2.6429,-2.6445,-2.6437,-2.6502,-2.6482,-2.6485,-2.6487,-2.6508,-2.6515,-2.652,-2.6445,-2.6444,-2.6444,0,0,-2.6252,-2.6266,-2.6296,-2.631,-2.6331,-2.6337,-2.6344,-2.6363,-2.6369,-2.6403,-2.6397,-2.6418,-2.6457,-2.647,-2.6482,-2.6529,-2.6524,-2.6536,-2.6559,-2.6581,-2.6586,-2.6591,-2.6609,-2.6615,-2.654,-2.654,-2.654,0,-2.6268,-2.6307,-2.6311,-2.6339,-2.6353,-2.6348,-2.6378,-2.6391,-2.6417,-2.6427,-2.6417,-2.6465,-2.6477,-2.6518,-2.6529,-2.6539,-2.6547,-2.6534,-2.6585,-2.659,-2.6595,-2.6611,-2.6618,-2.6541,-2.6541,-2.6541,-2.6541,0,-2.6326,-2.6352,-2.6374,-2.6401,-2.6418,-2.6446,-2.6454,-2.647,-2.647,-2.6477,-2.6511,-2.6526,-2.655,-2.656,-2.6559,-2.66,-2.6594,-2.6585,-2.6567,-2.6603,-2.6618,-2.6625,-2.6543,-2.6543,-2.6542,-2.6542,0,0,-2.6376,-2.6406,-2.6414,-2.6426,-2.6449,-2.647,-2.6498,-2.6523,-2.6537,-2.6555,-2.6579,-2.6612,-2.6603,-2.6617,-2.6618,-2.6637,-2.6674,-2.6625,-2.6626,-2.6634,-2.6721,-2.6728,-2.6735,-2.667,-2.6672,-2.6673,-2.6719,0,-2.6419,-2.6471,-2.6476,-2.6521,-2.6546,-2.6542,-2.6566,-2.6583,-2.659,-2.6611,-2.6619,-2.6643,-2.663,-2.6638,-2.6657,-2.6666,-2.6691,-2.6662,-2.6692,-2.6693,-2.6688,-2.6743,-2.6751,-2.6794,-2.6725,-2.6726,-2.6727,0,-2.6477,-2.6499,-2.6547,-2.6568,-2.6578,-2.6601,-2.6624,-2.6645,-2.6663,-2.6668,-2.6683,-2.6682,-2.671,-2.6691,-2.673,-2.6711,-2.6723,-2.6729,-2.6731,-2.6734,-2.6713,-2.6748,-2.6808,-2.6815,-2.6737,-2.6736,-2.6735,0,-2.651,-2.6551,-2.6585,-2.6596,-2.6621,-2.6637,-2.6647,-2.6665,-2.668,-2.67,-2.671,-2.6733,-2.6745,-2.6763,-2.6768,-2.6753,-2.6807,-2.6788,-2.6811,-2.6811,-2.6823,-2.6822,-2.6886,-2.683,-2.683,-2.683,-2.683,0,-2.6558,-2.6588,-2.66,-2.6622,-2.6655,-2.666,-2.6692,-2.6702,-2.6718,-2.6741,-2.6738,-2.6759,-2.6764,-2.6786,-2.6789,-2.6821,-2.6827,-2.6831,-2.6832,-2.6831,-2.6831,-2.684,-2.6837,-2.6831,-2.6831,-2.6831,-2.683,0,-2.66,-2.661,-2.6647,-2.6668,-2.6674,-2.6698,-2.6715,-2.6735,-2.6743,-2.6771,-2.6778,-2.679,-2.6815,-2.6822,-2.6852,-2.6854,-2.6893,-2.689,-2.6887,-2.6887,-2.691,-2.6908,-2.6982,-2.6992,-2.6929,-2.693,-2.693,0,-2.6631,-2.6654,-2.6678,-2.6693,-2.6705,-2.673,-2.6746,-2.6752,-2.6768,-2.6792,-2.6809,-2.6834,-2.6855,-2.6896,-2.6907,-2.693,-2.6928,-2.6953,-2.6932,-2.6931,-2.6929,-2.6928,-2.6931,-2.6957,-2.6957,-2.6958,-2.6958,0,-2.6684,-2.6688,-2.6712,-2.6737,-2.6757,-2.6777,-2.6796,-2.6808,-2.6816,-2.6835,-2.6862,-2.6878,-2.691,-2.6935,-2.6959,-2.6969,-2.6965,-2.6965,-2.6972,-2.6972,-2.6969,-2.6972,-2.6898,-2.6963,-2.6963,-2.6962,-2.6962,-2.6962,-2.6722,-2.6743,-2.6763,-2.679,-2.6805,-2.6823,-2.6844,-2.6854,-2.6877,-2.6904,-2.6906,-2.6935,-2.6953,-2.6985,-2.6996,-2.7019,-2.7011,-2.7021,-2.7023,-2.7026,-2.7028,-2.6966,-2.7023,-2.7023,-2.7023,-2.7022,-2.7022,0,-2.6776,-2.6789,-2.6814,-2.6841,-2.6862,-2.6858,-2.6879,-2.6896,-2.6923,-2.694,-2.6961,-2.6993,-2.7017,-2.703,-2.7055,-2.707,-2.7069,-2.7076,-2.7076,-2.7078,-2.7033,-2.7025,-2.7077,-2.7077,-2.7077,-2.7077,-2.7077,-2.7077,-2.6807,-2.6842,-2.6849,-2.6891,-2.6904,-2.6934,-2.6946,-2.6963,-2.6977,-2.7012,-2.7034,-2.7042,-2.7058,-2.7084,-2.7106,-2.7109,-2.7118,-2.7127,-2.7129,-2.7087,-2.7081,-2.7076,-2.7069,-2.7129,-2.7129,-2.7172,-2.7173,-2.7173]}]]